カタログに戻る

STARLINK-36825

運用中通信VLEO
NORAD 68041·PAYLOAD·🇺🇸 United States

打ち上げ Mar 2, 2026 から Vandenberg Space Force Base

Loading…

次のパス (今後24時間)

TLE

最新Source: CelesTrak SupGP

元期: Sep 14, 2026, 23:27 UTC

1 68041C 26041B   26257.97756944  .00025758  00000+0  76085-3 0  2577
2 68041  53.1581 245.3392 0001596  90.0958 276.3223 15.34384392    12

AllMySatでSTARLINK-36825をリアルタイム追跡

Download on the App Store